Weather in Darwin

Australia     12°27′56″S   130°50′33″E
temp.,
°C
wind,
m/s
gust,
m/s
humid.,
%
clouds,
%
prec.,
mm/h
press.,
hPa
HPBL,
m
2 march, tue
tue200:30+27nw2375100 1.3 1009128
03:30+26w2276100 1.9 1008117
06:30+27w227599 0.0 1008152
09:30+29wnw237394 0.0 1010366
12:30+30wnw567875 6.4 1009450
15:30+30w567288 9.2 1007649
18:30+29w4580100 0.0 1007433
21:30+28w468283 0.0 1009386
3 march, wed
wed300:30+27w358357 0.5 1009311
03:30+27w468478 0.6 1008421
06:30+28wnw5782100 0.0 1009420
09:30+29wnw4677100 0.0 1010718
12:30+30w447046 0.0 10091020
15:30+30w557273 0.0 1006811
18:30+29w4679100 0.0 1007554
21:30+28wsw3481100 0.0 1009285
4 march, thu
thu400:30+28w3584100 0.0 1009279
03:30+28w3483100 0.0 1008229
06:30+27w348534 0.0 1008261
09:30+29wnw458046 0.0 1010512
12:30+31w447453 0.0 1009803
15:30+31w557438 0.1 1006600
18:30+29w588290 2.8 1006301
21:30+28ese228195 5.2 100977
5 march, fri
fri500:30+25sw2480100 0.1 1009118
03:30+27nw567697 0.1 1007221
06:30+28wnw468615 0.0 1008359
09:30+30w467753 0.0 1009698
12:30+31wsw567021 0.0 1008592
15:30+31w566911 0.0 1006700
18:30+29w57755 0.1 1006366
21:30+28w577932 0.1 1008288
6 march, sat
sat600:30+28wnw587978 0.0 1007331
03:30+28w698246 0.0 1006463
06:30+28w69830 0.0 1007607
09:30+30w68793 0.0 1009791
12:30+31w67750 0.0 1007877
15:30+30w68770 0.0 1005856
18:30+29w57820 0.0 1005673
21:30+28wnw57870 0.0 1007430